This is the latest recevied weather packets stored in our database for station/object KD7AWQ. If no packets are shown the sender has not sent any weather packets the latest 10 day(s).
| Time | Temp. | Humidity | Pressure | Rain* | Wind** | Luminosity | Snow |
|---|---|---|---|---|---|---|---|
| 1788185860 | 20.56° C | 74% | 1190.1 hPa | 0 mm | - | 36 W/m² | - |
| 1788185555 | 20.56° C | 74% | 1190.4 hPa | 0 mm | - | 47 W/m² | - |
| 1788185255 | 20.56° C | 74% | 1190.4 hPa | 0 mm | - | 49 W/m² | - |
| 1788184949 | 20.56° C | 74% | 1190.3 hPa | 0 mm | - | 56 W/m² | - |
| 1788184647 | 20° C | 77% | 1190.3 hPa | 0 mm | - | 55 W/m² | - |
| 1788184343 | 20° C | 77% | 1190.3 hPa | 0 mm | - | 48 W/m² | - |
| 1788184038 | 20° C | 77% | 1190.5 hPa | 0 mm | - | 42 W/m² | - |
| 1788183735 | 20° C | 77% | 1189.9 hPa | 0 mm | - | 39 W/m² | - |
| 1788183433 | 20° C | 76% | 1189.9 hPa | 0 mm | - | 36 W/m² | - |
| 1788183128 | 20° C | 76% | 1189.7 hPa | 0 mm | - | 27 W/m² | - |
| 1788182823 | 20° C | 75% | 1189.6 hPa | 0 mm | - | 20 W/m² | - |
| 1788182523 | 20° C | 75% | 1189.5 hPa | 0 mm | - | 15 W/m² | - |
| 1788182217 | 20.56° C | 74% | 1189.1 hPa | 0 mm | - | 10 W/m² | - |
| 1788181914 | 20.56° C | 73% | 1189 hPa | 0 mm | - | 6 W/m² | - |
| 1788181609 | 20.56° C | 72% | 1189 hPa | 0 mm | - | 4 W/m² | - |
| 1788181305 | 20.56° C | 74% | 1188.7 hPa | 0 mm | - | 2 W/m² | - |
| 1788181003 | 20.56° C | 72% | 1188.6 hPa | 0 mm | - | 1 W/m² | - |
| 1788180699 | 20.56° C | 71% | 1188.6 hPa | 0 mm | - | 1 W/m² | - |
| 1788180394 | 20° C | 72% | 1188.2 hPa | 0 mm | - | 0 W/m² | - |
| 1788180090 | 20° C | 74% | 1188.6 hPa | 0 mm | - | 0 W/m² | - |
| 1788179790 | 20° C | 74% | 1188.3 hPa | 0 mm | - | 0 W/m² | - |
| 1788179489 | 20° C | 74% | 1188.4 hPa | 0 mm | - | 0 W/m² | - |
| 1788179188 | 20° C | 80% | 1188.3 hPa | 0 mm | - | 0 W/m² | - |
| 1788178885 | 20° C | 82% | 1188 hPa | 0 mm | - | 0 W/m² | - |
| 1788178584 | 20° C | 82% | 1188 hPa | 0 mm | - | 0 W/m² | - |
* Rain latest hour (hover to see other rain measurements)
** Current wind speed in m/s (hover to see current wind gust speed)